Track LEMUR 2 KRYWE now! 10-day predictions LEMUR 2 KRYWE is classified as:
1 51100U 22003G 22186.77751924 .00027595 00000-0 83524-3 0 9998 2 51100 44.9905 327.2140 0008860 300.9938 59.0076 15.33719493 26407